Location: North Evanston
(42.0634°N, 87.6976°W)
Time: 14:17:03
(UTC+00:00)

Vanguard 3 - Pass Details

Date: 17 May 2026
Orbit: 507 x 3204 km, 33.3° (Epoch: 6 June)

Event Time Altitude Azimuth Distance (km) Brightness Sun altitude
Rises 20:10:32 0° 252° (WSW) 6,630 12.4 52.3°
Reaches altitude 10° 20:14:40 10° 250° (WSW) 5,824 12.4 51.6°
Maximum altitude 20:33:28 64° 175° (S) 3,393 11.2 48.3°
Drops below altitude 10° 20:50:18 10° 99° (E) 5,293 11.0 45.4°
Sets 20:53:50 0° 97° (E) 6,024 11.2 44.7°
